Location: Alafon
(8.4500°N, 4.2333°E)
Time: 01:11:35
(UTC+00:00)

Cosmos 2263 Rocket - Pass Details

Date: 05 July 2020
Orbit: 825 x 847 km, 71.0° (Epoch: 06 August)

Event Time Altitude Azimuth Distance (km) Brightness Sun altitude
Rises 20:34:42 0° 341° (NNW) 3,350 6.0 -33.4°
Reaches altitude 10° 20:37:07 10° 340° (NNW) 2,419 5.1 -33.9°
Enters shadow 20:40:29 38° 333° (NNW) 1,232 3.3 -34.6°
